TimeCST,TemperatureF,Dew PointF,Humidity,Sea Level PressureIn,VisibilityMPH,Wind Direction,Wind SpeedMPH,Gust SpeedMPH,PrecipitationIn,Events,Conditions,WindDirDegrees,DateUTC
12:52 AM,34.0,30.9,89,29.74,7.0,Calm,Calm,-,N/A,,Overcast,0,2013-02-14 06:52:00
1:52 AM,34.0,30.9,89,29.72,9.0,Calm,Calm,-,N/A,,Overcast,0,2013-02-14 07:52:00
2:52 AM,35.1,30.9,85,29.69,10.0,SSE,9.2,-,N/A,,Overcast,160,2013-02-14 08:52:00
3:52 AM,37.0,30.9,79,29.67,10.0,South,11.5,-,N/A,,Overcast,180,2013-02-14 09:52:00
4:52 AM,36.0,30.9,82,29.67,10.0,SSW,11.5,-,N/A,,Mostly Cloudy,200,2013-02-14 10:52:00
5:52 AM,35.1,30.9,85,29.67,10.0,SSW,13.8,-,N/A,,Partly Cloudy,210,2013-02-14 11:52:00
6:52 AM,34.0,30.9,89,29.68,10.0,SW,12.7,-,N/A,,Clear,230,2013-02-14 12:52:00
7:52 AM,35.1,30.9,85,29.70,10.0,WSW,12.7,-,N/A,,Overcast,240,2013-02-14 13:52:00
8:52 AM,36.0,30.9,82,29.71,10.0,WSW,12.7,-,N/A,,Overcast,240,2013-02-14 14:52:00
8:57 AM,35.6,30.2,81,29.69,10.0,WSW,13.8,-,N/A,,Overcast,240,2013-02-14 14:57:00
9:52 AM,36.0,30.9,82,29.72,9.0,WSW,11.5,-,N/A,,Overcast,240,2013-02-14 15:52:00
10:52 AM,37.0,30.9,79,29.74,10.0,WSW,21.9,-,N/A,,Overcast,250,2013-02-14 16:52:00
11:52 AM,37.0,30.9,79,29.75,9.0,West,20.7,29.9,N/A,,Overcast,260,2013-02-14 17:52:00
12:52 PM,37.0,30.9,79,29.77,10.0,West,19.6,28.8,N/A,,Overcast,280,2013-02-14 18:52:00
1:52 PM,37.9,28.9,70,29.79,10.0,WNW,24.2,33.4,N/A,,Overcast,290,2013-02-14 19:52:00
2:52 PM,39.0,30.0,70,29.83,10.0,WNW,19.6,28.8,N/A,,Mostly Cloudy,290,2013-02-14 20:52:00
3:52 PM,37.9,28.9,70,29.86,10.0,WNW,18.4,-,N/A,,Mostly Cloudy,300,2013-02-14 21:52:00
4:52 PM,35.1,26.1,70,29.91,10.0,WNW,17.3,-,N/A,,Overcast,300,2013-02-14 22:52:00
5:52 PM,34.0,26.1,73,29.94,10.0,WNW,13.8,-,N/A,,Overcast,300,2013-02-14 23:52:00
6:52 PM,34.0,26.1,73,29.97,10.0,WNW,9.2,-,N/A,,Overcast,300,2013-02-15 00:52:00
7:52 PM,33.1,27.0,78,29.98,10.0,West,5.8,-,N/A,,Overcast,280,2013-02-15 01:52:00
8:52 PM,32.0,27.0,82,29.98,10.0,WNW,5.8,-,N/A,,Overcast,290,2013-02-15 02:52:00
9:52 PM,32.0,27.0,82,29.99,2.5,SW,9.2,-,0.00,Snow,Light Snow,230,2013-02-15 03:52:00
10:03 PM,32.0,28.4,87,29.97,8.0,WSW,6.9,-,0.00,,Overcast,240,2013-02-15 04:03:00
10:52 PM,32.0,28.0,85,29.99,10.0,West,6.9,-,0.00,,Overcast,260,2013-02-15 04:52:00
11:52 PM,32.0,28.0,85,30.00,10.0,NW,3.5,-,N/A,,Overcast,310,2013-02-15 05:52:00